Aberdeen, United Kingdom

8:29 PM GMT on January 18, 2017 (GMT +0000)
Dyce

Weather History for EGPD - November, 2012

Change the Weather History Date:

Wednesday, November 21, 2012

  Actual Average Record
Temperature  
Mean Temperature 41 °F -  
Max Temperature 45 °F 45 °F 53 °F (1998)
Min Temperature 37 °F 34 °F 17 °F (2004)
Degree Days  
Heating Degree Days 24    
Moisture  
Dew Point 38 °F    
Average Humidity 86    
Maximum Humidity 100    
Minimum Humidity 75    
Precipitation  
Precipitation 0.00 in 0.10 in - ()
Sea Level Pressure  
Sea Level Pressure 29.63 in    
Wind  
Wind Speed 8 mph ()    
Max Wind Speed 16 mph    
Max Gust Speed -    
Visibility 9.0 miles    
Events      
Averages and records for this station are not official NWS values.
T = Trace of Precipitation, MM = Missing Value Source: Averaged Metar Reports

Daily Weather History Graph

Daily Weather History Graph

Search for Another Location

Airport or City:

Trip Planner

Search our weather history database for the weather conditions in past years. The results will help you decide how hot, cold, wet, or windy it might be!

Date:

Astronomy

Nov. 21, 2012 Rise Set
Actual Time 8:04 AM GMT 3:44 PM GMT
Civil Twilight 7:19 AM GMT 4:29 PM GMT
Nautical Twilight 6:30 AM GMT 5:18 PM GMT
Astronomical Twilight 5:45 AM GMT 6:03 PM GMT
Moon 1:05 PM GMT (11/21) No Moon Set
Length of Visible Light 9h 10m
Length of Day
7h 39m
First Quarter, 59% of the Moon is Illuminated
Nov 21
First Quarter
Nov 28
Full
Dec 6
Last Quarter
Dec 13
New
Dec 20
First Quarter

Hourly Weather History & Observations

Time (GMT) Temp. Windchill Dew Point Humidity Pressure Visibility Wind Dir Wind Speed Gust Speed Precip Events Conditions
12:20 AM 46.4 °F 40.4 °F 39.2 °F 76% 29.50 in 6.2 mi SSW 13.8 mph - N/A   Scattered Clouds
12:50 AM 46.4 °F 41.5 °F 39.2 °F 76% 29.53 in 6.2 mi SW 10.4 mph - N/A   Mostly Cloudy
1:20 AM 46.4 °F 41.5 °F 39.2 °F 76% 29.53 in 6.2 mi SW 10.4 mph - N/A   Scattered Clouds
1:50 AM 44.6 °F 39.2 °F 39.2 °F 81% 29.53 in 6.2 mi SW 10.4 mph - N/A   Unknown
2:20 AM 46.4 °F 40.1 °F 39.2 °F 76% 29.56 in 6.2 mi SSW 15.0 mph - N/A   Partly Cloudy
2:50 AM 45 °F - 40 °F 75% 29.58 in 22 mi SW 16.1 mph - -   Mostly Cloudy
2:50 AM 44.6 °F 37.8 °F 39.2 °F 81% 29.56 in 6.2 mi SSW 15.0 mph - N/A   Partly Cloudy
3:20 AM 44.6 °F 37.8 °F 39.2 °F 81% 29.56 in - SSW 15.0 mph - N/A   Clear
3:50 AM 46.4 °F 40.4 °F 39.2 °F 76% 29.59 in 6.2 mi SW 13.8 mph - N/A   Unknown
4:20 AM 44.6 °F 39.7 °F 39.2 °F 81% 29.59 in - SW 9.2 mph - N/A   Clear
4:50 AM 46.4 °F 45.2 °F 39.2 °F 76% 29.62 in 6.2 mi Variable 3.5 mph - N/A   Unknown
5:20 AM 44.6 °F - 39.2 °F 81% 29.62 in - Calm Calm - N/A   Clear
5:50 AM 44 °F - 39 °F 75% 29.63 in 25 mi South 11.5 mph - -  
5:50 AM 41.0 °F 36.4 °F 37.4 °F 87% 29.62 in - South 6.9 mph - N/A   Clear
6:20 AM 44.6 °F 41.4 °F 37.4 °F 76% 29.62 in - SW 5.8 mph - N/A   Clear
6:50 AM 39.2 °F 34.2 °F 37.4 °F 93% 29.62 in - SSE 6.9 mph - N/A   Clear
7:20 AM 41.0 °F 35.8 °F 37.4 °F 87% 29.62 in - SSW 8.1 mph - N/A   Clear
7:50 AM 39.2 °F 34.2 °F 35.6 °F 87% 29.65 in 6.2 mi South 6.9 mph - N/A   Partly Cloudy
8:20 AM 41.0 °F 35.8 °F 37.4 °F 87% 29.65 in 6.2 mi South 8.1 mph - N/A   Partly Cloudy
8:50 AM 42 °F - 39 °F 83% 29.69 in 19 mi SSE 5.8 mph - -   Mostly Cloudy
8:50 AM 41.0 °F 35.8 °F 39.2 °F 93% 29.68 in 6.2 mi SSE 8.1 mph - N/A   Partly Cloudy
9:20 AM 42.8 °F 37.0 °F 39.2 °F 87% 29.68 in 6.2 mi South 10.4 mph - N/A   Partly Cloudy
9:50 AM 42.8 °F 38.6 °F 39.2 °F 87% 29.68 in - South 6.9 mph - N/A   Clear
10:20 AM 42.8 °F 39.3 °F 39.2 °F 87% 29.68 in - South 5.8 mph - N/A   Clear
10:50 AM 42.8 °F 40.1 °F 39.2 °F 87% 29.68 in - South 4.6 mph - N/A   Clear
11:20 AM 42.8 °F 40.1 °F 41.0 °F 93% 29.68 in - South 4.6 mph - N/A   Clear
11:50 AM 44 °F - 40 °F 79% 29.68 in 15 mi South 6.9 mph - -   Mostly Cloudy
11:50 AM 44.6 °F 40.7 °F 41.0 °F 87% 29.68 in - South 6.9 mph - N/A   Clear
12:20 PM 44.6 °F 40.2 °F 41.0 °F 87% 29.68 in - SSE 8.1 mph - N/A   Clear
12:50 PM 44.6 °F 42.2 °F 39.2 °F 81% 29.65 in - SSE 4.6 mph - N/A   Clear
1:20 PM 42.8 °F 38.0 °F 39.2 °F 87% 29.65 in - South 8.1 mph - N/A   Clear
1:50 PM 42.8 °F 40.1 °F 39.2 °F 87% 29.65 in - South 4.6 mph - N/A   Clear
2:20 PM 42.8 °F 39.3 °F 39.2 °F 87% 29.65 in - South 5.8 mph - N/A   Clear
2:50 PM 44 °F - 39 °F 77% 29.67 in 17 mi South 6.9 mph - -   Mostly Cloudy
2:50 PM 44.6 °F 40.7 °F 41.0 °F 87% 29.65 in - South 6.9 mph - N/A   Clear
3:20 PM 44.6 °F 43.1 °F 39.2 °F 81% 29.65 in - Variable 3.5 mph - N/A   Clear
3:50 PM 41.0 °F - 37.4 °F 87% 29.65 in - Calm Calm - N/A   Clear
4:20 PM 39.2 °F 35.9 °F 37.4 °F 93% 29.65 in - SSE 4.6 mph - N/A   Clear
4:50 PM 41.0 °F 37.1 °F 37.4 °F 87% 29.65 in - South 5.8 mph - N/A   Clear
5:20 PM 39.2 °F 35.9 °F 35.6 °F 87% 29.65 in - SSW 4.6 mph - N/A   Clear
5:50 PM 42 °F - 39 °F 86% 29.67 in 17 mi South 5.8 mph - -  
5:50 PM 39.2 °F 35.0 °F 37.4 °F 93% 29.65 in - South 5.8 mph - N/A   Clear
6:20 PM 39.2 °F 35.9 °F 37.4 °F 93% 29.65 in - SE 4.6 mph - N/A   Clear
6:50 PM 39.2 °F 35.9 °F 37.4 °F 93% 29.65 in - SSE 4.6 mph - N/A   Clear
7:20 PM 39.2 °F - 37.4 °F 93% 29.65 in - Variable 2.3 mph - N/A   Clear
7:50 PM 39.2 °F 34.2 °F 37.4 °F 93% 29.65 in - South 6.9 mph - N/A   Clear
8:20 PM 37.4 °F 30.8 °F 37.4 °F 100% 29.65 in - South 9.2 mph - N/A   Clear
8:50 PM 40 °F - 38 °F 91% 29.66 in 11 mi South 9.2 mph - -  
8:50 PM 39.2 °F 33.6 °F 37.4 °F 93% 29.65 in - South 8.1 mph - N/A   Clear
9:20 PM 37.4 °F 32.8 °F 37.4 °F 100% 29.65 in - South 5.8 mph - N/A   Clear
9:50 PM 39.2 °F 35.9 °F 37.4 °F 93% 29.62 in - SSE 4.6 mph - N/A   Clear
10:20 PM 39.2 °F 37.0 °F 37.4 °F 93% 29.62 in - Variable 3.5 mph - N/A   Clear
10:50 PM 39.2 °F 34.2 °F 37.4 °F 93% 29.62 in - SE 6.9 mph - N/A   Clear
11:20 PM 39.2 °F 33.6 °F 37.4 °F 93% 29.62 in 6.2 mi South 8.1 mph - N/A   Unknown
11:50 PM 39 °F - 38 °F 96% 29.63 in 12 mi SE 6.9 mph - -  
11:50 PM 39.2 °F 33.0 °F 37.4 °F 93% 29.62 in - SSE 9.2 mph - N/A   Clear